Location: C.E.K. Mees Observatory
(42.7003°N, 77.4088°W)
Time: 22:36:53
(UTC-04:00)

Vanguard 1 - All Passes

Search period start: 22 October 2017 00:00
Search period end: 01 November 2017 00:00
Orbit: 650 x 3834 km, 34.3° (Epoch: 21 October)

Date Brightness Start Highest point End Pass type
(mag) Time Alt. Az. Time Alt. Az. Time Alt. Az.
22 Oct - 01:50:29 10° WSW 02:03:35 61° SSE 02:25:07 10° E visible
22 Oct - 04:11:17 10° W 04:28:34 65° S 04:51:45 10° ESE visible
22 Oct - 06:34:34 10° W 06:54:02 46° SSW 07:14:23 10° SSE visible
22 Oct - 09:03:34 10° W 09:17:01 19° SW 09:29:30 10° SSW daylight
22 Oct - 23:52:44 10° SSW 00:02:22 40° SE 00:18:35 10° E visible
23 Oct - 02:11:17 10° WSW 02:24:46 64° S 02:46:46 10° E visible
23 Oct - 04:32:27 10° W 04:49:57 61° SSW 05:12:53 10° ESE visible
23 Oct - 06:56:16 10° W 07:14:58 39° SW 07:34:20 10° SSE visible
23 Oct - 09:29:17 10° WSW 09:37:24 13° SW 09:45:11 10° SSW daylight
23 Oct - 21:58:38 10° SSE 22:03:40 15° SE 22:10:14 10° E night (unlit)
24 Oct - 00:13:01 10° SW 00:23:03 47° SSE 00:40:27 10° E visible
24 Oct - 02:32:12 10° WSW 02:46:03 65° S 03:08:21 10° ESE visible
24 Oct - 04:53:40 10° W 05:11:17 56° SSW 05:33:47 10° SE visible
24 Oct - 07:18:15 10° W 07:35:49 32° SW 07:53:49 10° SSE daylight
24 Oct - 22:17:21 10° S 22:23:50 22° SE 22:33:19 10° E night (unlit)
25 Oct - 00:33:31 10° SW 00:43:52 53° SSE 01:02:13 10° E visible
25 Oct - 02:53:09 10° W 03:07:22 65° S 03:29:50 10° ESE visible
25 Oct - 05:14:57 10° W 05:32:31 51° SSW 05:54:25 10° SE visible
25 Oct - 07:40:44 10° W 07:56:33 25° SW 08:12:39 10° S daylight
25 Oct - 22:36:53 10° SSW 22:44:08 29° SE 22:55:39 10° E night (unlit)
26 Oct - 00:54:09 10° WSW 01:04:51 58° SSE 01:23:56 10° E visible
26 Oct - 03:14:10 10° W 03:28:42 63° S 03:51:11 10° ESE visible
26 Oct - 05:36:22 10° W 05:53:41 44° SSW 06:14:44 10° SSE visible
26 Oct - 08:04:08 10° W 08:17:13 19° SW 08:30:27 10° SSW daylight
26 Oct - 22:56:52 10° SSW 23:04:36 36° SE 23:17:38 10° E night (unlit)
27 Oct - 01:14:54 10° WSW 01:25:57 61° S 01:45:36 10° E visible
27 Oct - 03:35:14 10° W 03:50:02 59° SSW 04:12:22 10° ESE visible
27 Oct - 05:57:59 10° W 06:14:45 38° SW 06:34:39 10° SSE visible
27 Oct - 08:29:48 10° WSW 08:37:49 13° SW 08:45:53 10° SSW daylight
27 Oct - 21:04:01 10° SE 21:06:26 11° SE 21:09:12 10° ESE night (unlit)
27 Oct - 23:17:08 10° SW 23:25:12 43° SSE 23:39:28 10° E visible
28 Oct - 01:35:45 10° WSW 01:47:08 63° S 02:07:12 10° ESE visible
28 Oct - 03:56:22 10° W 04:11:20 54° SSW 04:33:18 10° SE visible
28 Oct - 06:19:54 10° W 06:35:43 31° SW 06:54:04 10° SSE visible
28 Oct - 21:21:58 10° S 21:26:38 17° SE 21:32:58 10° E night (unlit)
28 Oct - 23:37:36 10° SW 23:45:59 49° SSE 00:01:11 10° E visible
29 Oct - 01:56:39 10° W 02:08:20 62° S 02:28:43 10° ESE visible
29 Oct - 04:17:35 10° W 04:32:35 48° SSW 04:53:57 10° SE visible
29 Oct - 06:42:21 10° W 06:56:37 24° SW 07:12:46 10° S visible
29 Oct - 21:41:21 10° S 21:46:57 24° SE 21:55:22 10° E night (unlit)
29 Oct - 23:58:13 10° WSW 00:06:53 54° SSE 00:22:51 10° E visible
30 Oct - 02:17:36 10° W 02:29:35 59° S 02:50:05 10° ESE visible
30 Oct - 04:38:56 10° W 04:53:46 42° SSW 05:14:15 10° SSE visible
30 Oct - 07:05:47 10° W 07:17:28 18° SW 07:30:18 10° SSW visible
30 Oct - 22:01:16 10° SSW 22:07:23 31° SE 22:17:19 10° E night (unlit)
31 Oct - 00:18:55 10° WSW 00:27:52 58° S 00:44:28 10° E visible
31 Oct - 02:38:36 10° W 02:50:50 55° SSW 03:11:17 10° ESE visible
31 Oct - 05:00:30 10° W 05:14:54 35° SSW 05:34:07 10° SSE visible
31 Oct - 07:31:58 10° WSW 07:38:18 12° SW 07:44:57 10° SSW daylight
31 Oct - 22:21:30 10° SW 22:27:59 38° SSE 22:39:03 10° E night (unlit)
